User: anonymous
Location: Caltech
(34.1382°N, 118.1253°W)
Time: 02:49:41
(UTC-07:00)
Language:

Iridium 59 - Orbit

View from above orbital plane
View from above orbital plane
View from above satellite
View from above satellite

Ground track
Ground track

The orbit data is extracted from the following two-line orbital elements,

1 25275U 98019D   14212.48551748  .00000099  00000-0  28308-4 0  4404
2 25275 086.3976 006.9646 0002061 108.2743 251.8677 14.34217246855320
Epoch (UTC): 31 July 2014 11:39:08
Eccentricity: 0.0002061
inclination: 86.3976°
perigee height: 776 km
apogee height: 779 km
right ascension of ascending node: 6.9646°
argument of perigee: 108.2743°
revolutions per day: 14.34217246
mean anomaly at epoch: 251.8677°
orbit number at epoch: 85532

The dashed part of the orbit path shows where the satellite is in the earth's shadow,  

DLR